Regional Weather Roundup
Issued by NWS Columbia, SC

Home | Current Version | Previous Version | Text Only | Print | Product List | Glossary On
Versions: 1 2 3 4 5 6 7 8 9 10 11 12 13 14 15 16 17 18 19 20 21 22 23 24 25 26 27 28 29 30 31 32 33 34 35 36 37 38 39 40 41 42 43 44 45 46 47 48 49 50
000
ASUS42 KCAE 170710
RWRCAE
REGIONAL WEATHER ROUNDUP
NATIONAL WEATHER SERVICE COLUMBIA SC
300 AM EDT WED SEP 17 2014

NOTE: "FAIR" INDICATES FEW OR NO CLOUDS BELOW 12,000 FEET WITH NO
SIGNIFICANT WEATHER AND/OR OBSTRUCTIONS TO VISIBILITY.

NOT ALL STATIONS ARE QUALITY CONTROLLED BY THE NATIONAL
WEATHER SERVICE. USE DATA WITH CAUTION...ESPECIALLY
DEWPOINT OBSERVATIONS.

SCZ001>056-GAZ040-063>065-077-170800-
...UPSTATE SOUTH CAROLINA...

CITY           SKY/WX    TMP DP  RH WIND       PRES   REMARKS
ANDERSON       PTCLDY    68  65  90 N3        29.97S
LIBERTY        CLOUDY    64  64 100 MISG      29.98F
SPARTANBURG    MOCLDY    72  72 100 NE5       29.99R
CLEMSON        CLOUDY    74  66  76 CALM      29.99S
GREENVILLE     CLOUDY    70  65  84 NE12      29.99F
GREENWOOD      MOCLDY    67  63  87 CALM      29.98S
GREER          MOCLDY    68  66  93 NE6       29.98S
ROCK HILL      FOG       66  66 100 CALM      29.97F VSB 1/2
CHESTER        LGT RAIN  70  68  94 N3        30.02F
LAURENS        CLOUDY    66 N/A N/A CALM      29.98S


...CENTRAL SOUTH CAROLINA...

CITY           SKY/WX    TMP DP  RH WIND       PRES   REMARKS
COLUMBIA APT   LGT RAIN  74  68  81 NE6       29.95S
COLUMBIA OWENS CLOUDY    73  65  75 NE6       29.97R
DARLINGTON     CLOUDY    66  63  88 CALM      29.99S
FLORENCE       CLOUDY    69  65  86 S5        29.97F
MCENTIRE ANGB  CLOUDY    71  66  87 N5        29.97S
ORANGEBURG     CLOUDY    71  68  90 E5        29.96R
SUMTER SHAW    MOCLDY    70  64  81 NE3       29.95S
NEWBERRY       CLOUDY    70  68  94 NE3       29.99S
AIKEN          FAIR      68  68 100 CALM      29.97F
BARNWELL       FAIR      72  70  94 CALM      29.94S
MANNING        CLOUDY    70 N/A N/A CALM      29.95F
CAMDEN         LGT RAIN  66  64  94 N8G24     30.02R
LANCASTER      LGT RAIN  66  66 100 CALM      29.97F
WINNSBORO      PTSUNNY   68  66  94 E6        29.97F


...EASTERN AND COASTAL SOUTH CAROLINA...

CITY           SKY/WX    TMP DP  RH WIND       PRES   REMARKS
MYRTLE BEACH   CLOUDY    73  70  88 NW9       29.94F
N MYRTLE BCH   LGT RAIN  70  65  84 N10       29.94F
CONWAY         CLOUDY    70  70 100 N7        29.96S
MARION         LGT RAIN  68  63  83 CALM      29.97F
HARTSVILLE     CLOUDY    68  64  88 NE3       29.99F
FLORENCE       CLOUDY    69  65  86 S5        29.97F
DARLINGTON     CLOUDY    66  63  88 CALM      29.99S
CHARLESTON APT PTCLDY    73  70  90 N6        29.93F
MOUNT PLEASANT PTSUNNY   72  72 100 CALM      29.93F FOG
WALTERBORO     FOG       72 N/A N/A CALM      29.93F VSB 1/2
BEAUFORT       MOCLDY    75  73  93 W6        29.91F


...EASTERN GEORGIA...

CITY           SKY/WX    TMP DP  RH WIND       PRES   REMARKS
AUGUSTA BUSH F PTCLDY    71  70  96 SE6       29.93S
AUGUSTA DANIEL PTCLDY    73  71  93 W5        29.94F
THOMSON        CLEAR     69  69 100 CALM      29.99F
WASHINGTON     FAIR      72  72 100 CALM      29.96S
CLAXTON        FAIR     N/A N/A N/A CALM      29.92F
SYLVANIA       MOSUNNY   72  71  98 CALM      29.94R
STATESBORO     CLEAR     70  70 100 CALM      29.93S
SAVANNAH       PTCLDY    70  67  90 CALM      29.92F


...SOUTHERN NORTH CAROLINA...

CITY           SKY/WX    TMP DP  RH WIND       PRES   REMARKS
CHARLOTTE      MOCLDY    64  62  93 N3        29.99F
MONROE         MOCLDY    64  62  93 S5        29.97F FOG
WADESBORO      CLOUDY    67  66  94 NE5       29.97F FOG
ROCKINGHAM     LGT RAIN  64  63  94 CALM      29.98S
RUTHERFORDTON  CLOUDY    67  65  93 N3        30.01F
ASHEVILLE      CLOUDY    64  61  90 N3        30.05S

$$


USA.gov is the U.S. government's official web portal to all federal, state and local government web resources and services.